EXPLORER 38 DEB, 28608

Orbit data source: Space-Track

EXPLORER 38 DEB, 28608 is space debris originally from a launch on Thu, 04 Jul 1968 UTC launched from the Air Force Western Test Range (AFWTR). Debris objects in space refer to the collection of defunct objects orbiting the Earth. Examples of debris include non-operational satellites, rocket bodies, and fragments generated from explosions, collisions, or faulty payload assembly.

Loading next visibility...
EXPLORER 38 DEB details
Identifier
28608, 1968-055M
Orbit
Active
Last TLE update1 day ago
Origin
Flag of USGSFC (US)
ManufacturerUnknown
MissionSpacecraft
Bus & MotorUnknown
MassUnknown
Launch date (UTC)
1968-07-04 (56 years ago)
Launch vehicleUnknown
Launch site
Air Force Western Test Range (AFWTR)
Object type
Payload
Rocket body
Debris
Shape & HBRCyl + 1 Cable, 8.2 m
Radar Cross Section8.200 m², Medium (>0.1 m² and < 1m²)

Expand to show TLE details & history

TLE from 1 day ago
0 EXPLORER 38 DEB
1 28608U 68055M   24355.59349976 -.00000010  00000-0  00000-0 0  9991
2 28608 120.8443 236.2078 0017768 199.8483 216.8786  6.42250358261762
Epoch: 2024-12-20T14:14Z
Definitive object data (Epoch: 2024-12-20T14:14:38.379Z)
Latitude45.86701°
Longitude-104.95249°
Altitude5,870.285 km
Speed5.704 km/s
True Right ascension13h 13m 27s
True Declination45° 46' 01"
Sunlit
Object was in daylight at TLE epoch
Visualization TLE readout
Latitude-8.76308°
Longitude-61.2887°
Altitude5,868.552 km
Speed5.701 km/s
Apparent Right ascension17h 00m 18s
Apparent Declination-37° 30' 26"
Sunlit
Object is in daylight
Visualization observer readout
Local Sidereal Time14:44:39
Azimuth153.542° SSE
Elevation6.559°
Doppler factor1
Orbital elements
Apogee altitude5,868.682 km
Perigee altitude5,825.239 km
Semi-major axis12,225.098 km
Eccentricity0.0017768
Inclination120.8443°
RAAN236.2078°
Arg. of periapsis199.8483°
True anomaly216.75663°
Mean anomaly216.8786°
Eccentric anomaly216.81759°
Mean motion1.6057 °/min
BSTARUnknown
Orbital period224.2 mins
Loading maneuver chart data...
Loading historical data...
Loading historical data...
Loading historical data...
Loading historical data...
Loading historical data...
Loading historical data...
Loading historical data...

EXPLORER 38 DEB Visibility forecast

Observer location: undefined°, undefined

Span
Click to sort rows by Start time (UTC) header in descending order
Start Az.
Max El. time (UTC)
Max El. Az.
Max El.
End time (UTC)
End Az.
54 mins2024-12-21 15:45:18.856Z155.777° SSE2024-12-21 16:12:18.856Z237.947° WSW41.534°2024-12-21 16:39:18.856Z317.287° NNW
52 mins2024-12-22 04:07:18.856Z46.048° ENE2024-12-22 04:33:18.856Z120.076° SE36.907°2024-12-22 04:59:18.856Z191.68° SSW
53 mins2024-12-22 07:34:18.856Z44.109° NE2024-12-22 08:00:18.856Z328.688° NNW43.185°2024-12-22 08:27:18.856Z251.854° W
49 mins2024-12-22 10:57:18.856Z73.663° E2024-12-22 11:21:18.856Z7.208° NNE38.605°2024-12-22 11:46:18.856Z300.879° NW
54 mins2024-12-22 14:17:18.856Z130.365° SE2024-12-22 14:44:18.856Z304.045° NW44.993°2024-12-22 15:11:18.856Z318.645° NNW
|